TimeEST,TemperatureF,Dew PointF,Humidity,Sea Level PressureIn,VisibilityMPH,Wind Direction,Wind SpeedMPH,Gust SpeedMPH,PrecipitationIn,Events,Conditions,WindDirDegrees,DateUTC
12:35 AM,53.6,46.4,77,30.07,10.0,SW,10.4,-,N/A,,Overcast,230,2012-12-03 05:35:00
12:51 AM,53.1,46.9,80,30.06,10.0,SW,13.8,23.0,N/A,,Overcast,230,2012-12-03 05:51:00
1:34 AM,51.8,46.4,82,30.06,10.0,WSW,15.0,25.3,N/A,,Mostly Cloudy,240,2012-12-03 06:34:00
1:51 AM,52.0,46.9,83,30.06,10.0,WSW,15.0,19.6,N/A,,Mostly Cloudy,250,2012-12-03 06:51:00
2:51 AM,51.1,46.9,86,30.07,9.0,WSW,10.4,-,N/A,,Mostly Cloudy,250,2012-12-03 07:51:00
3:51 AM,52.0,46.9,83,30.07,8.0,WSW,11.5,-,N/A,,Overcast,250,2012-12-03 08:51:00
4:51 AM,50.0,46.0,86,30.08,7.0,West,9.2,-,N/A,,Scattered Clouds,270,2012-12-03 09:51:00
5:51 AM,48.0,44.1,86,30.09,6.0,WSW,5.8,-,N/A,,Scattered Clouds,250,2012-12-03 10:51:00
6:51 AM,46.9,44.1,90,30.12,4.0,SW,6.9,-,N/A,,Scattered Clouds,230,2012-12-03 11:51:00
7:51 AM,48.0,45.0,89,30.13,4.0,WSW,6.9,-,N/A,,Scattered Clouds,240,2012-12-03 12:51:00
8:51 AM,51.1,45.0,80,30.15,7.0,West,9.2,-,N/A,Fog,Patches of Fog,260,2012-12-03 13:51:00
9:51 AM,55.9,43.0,62,30.15,10.0,WNW,13.8,-,N/A,,Scattered Clouds,300,2012-12-03 14:51:00
10:51 AM,57.0,43.0,59,30.15,10.0,NNW,8.1,-,N/A,,Scattered Clouds,330,2012-12-03 15:51:00
11:51 AM,57.9,41.0,53,30.14,10.0,NW,8.1,-,N/A,,Mostly Cloudy,320,2012-12-03 16:51:00
12:51 PM,59.0,41.0,51,30.14,10.0,NW,9.2,-,N/A,,Mostly Cloudy,310,2012-12-03 17:51:00
1:51 PM,59.0,41.0,51,30.14,10.0,NNW,4.6,-,N/A,,Mostly Cloudy,340,2012-12-03 18:51:00
2:51 PM,59.0,39.9,49,30.15,10.0,NW,8.1,-,N/A,,Scattered Clouds,320,2012-12-03 19:51:00
3:51 PM,55.9,39.9,55,30.18,10.0,NNW,5.8,-,N/A,,Scattered Clouds,340,2012-12-03 20:51:00
4:51 PM,54.0,39.0,57,30.20,10.0,WNW,3.5,-,N/A,,Scattered Clouds,300,2012-12-03 21:51:00
5:51 PM,52.0,39.0,61,30.23,10.0,West,4.6,-,N/A,,Clear,280,2012-12-03 22:51:00
6:51 PM,48.0,39.0,71,30.25,10.0,West,4.6,-,N/A,,Partly Cloudy,280,2012-12-03 23:51:00
7:51 PM,44.1,39.0,82,30.27,10.0,West,5.8,-,N/A,,Clear,270,2012-12-04 00:51:00
8:51 PM,44.1,37.9,79,30.28,10.0,Calm,Calm,-,N/A,,Partly Cloudy,0,2012-12-04 01:51:00
9:51 PM,39.9,37.0,89,30.29,10.0,Calm,Calm,-,N/A,,Scattered Clouds,0,2012-12-04 02:51:00
10:51 PM,41.0,37.0,86,30.29,10.0,North,4.6,-,N/A,,Partly Cloudy,350,2012-12-04 03:51:00
11:51 PM,37.9,35.1,89,30.30,10.0,West,3.5,-,N/A,,Partly Cloudy,260,2012-12-04 04:51:00